Weather Roundup
Issued by NWS Chicago, IL

Home | Current Version | Previous Version | Text Only | Print | Product List | Glossary Off
Versions: 1 2 3 4 5 6 7 8 9 10 11 12 13 14 15 16 17 18 19 20 21 22 23 24 25 26 27 28 29 30 31 32 33 34 35 36 37 38 39 40 41 42 43 44 45 46 47 48 49 50

000
NZUS59 KLOT 271803
HRRLOT

CHICAGO AREA WEATHER ROUNDUP
NATIONAL WEATHER SERVICE CHICAGO/ROMEOVILLE IL
100 PM CDT TUE JUN 27 2017

NOTE: "FAIR" INDICATES FEW OR NO CLOUDS BELOW 12,000 FEET WITH NO
SIGNIFICANT WEATHER AND/OR OBSTRUCTIONS TO VISIBILITY.

* THESE STATIONS ARE NOT UNDER NWS QUALITY CONTROL. THEY ALSO MAY NOT
  REPORT WEATHER SUCH AS PRECIPITATION OR FOG.

ILZ005-006-012>014-019>023-271900-
NORTHEAST ILLINOIS

CITY           SKY/WX    TMP DP  RH WIND       PRES   REMARKS
OHARE          MOSUNNY   73  43  33 NW10      30.10F
6HR MIN TEMP:  58; 6HR MAX TEMP:  74;

MIDWAY         MOSUNNY   73  45  36 VRB6      30.11F
6HR MIN TEMP:  58; 6HR MAX TEMP:  74;

AURORA           N/A     73  45  36 VRB7      30.12F
6HR MIN TEMP:  54; 6HR MAX TEMP:  74;

LANSING*       PTSUNNY   71  43  36 NW7       30.13S
JOLIET*        MOSUNNY   74  46  36 SW7       30.12F
WAUKEGAN       PTSUNNY   72  48  42 NW12      30.09F
6HR MIN TEMP:  56; 6HR MAX TEMP:  73;

DUPAGE AIRPORT MOSUNNY   72  47  40 VRB7      30.11F
6HR MIN TEMP:  55; 6HR MAX TEMP:  72;

WHEELING       PTSUNNY   72  48  42 VRB7      30.12F
6HR MIN TEMP:  57; 6HR MAX TEMP:  72;

MORRIS*        MOSUNNY   73  43  34 NW3       30.11F
LEWIS AIRPORT* MOSUNNY   74  42  30 NW6       30.12F
$$

WIZ051-052-058>065-066-070>072-271900-
SOUTHEAST WISCONSIN

CITY           SKY/WX    TMP DP  RH WIND       PRES   REMARKS
MILWAUKEE      PTSUNNY   73  47  39 W12       30.08F
6HR MIN TEMP:  59; 6HR MAX TEMP:  75;

KENOSHA*       PTSUNNY   73  48  41 VRB7G16   30.09F
RACINE*        MOSUNNY   71  47  42 W5        30.10F
WAUKESHA       MOSUNNY   70  46  43 W9        30.10F
$$

INZ001>003-010>013-019-020-271900-
NORTHWEST INDIANA

CITY           SKY/WX    TMP DP  RH WIND       PRES   REMARKS
GARY*          MOSUNNY   73  43  33 N6        30.13S
MICHIGAN CITY* NOT AVBL
RENSSELAER*    NOT AVBL
VALPARAISO     PTSUNNY   74  46  36 NW5       30.13S
$$

LMZ740>746-271900-
SOUTHERN LAKE MICHIGAN

STATION/POSITION TIME  SKY/WX   TEMP WIND        PRES    VSBY
                                AIR  DIR/SP/G
                 (UTC)          (F)  (DEG/KT/KT) (MB)    (MI)
HARRISON CRIB    1740            66  110/ 10/ 10   N/A
BURNHAM HARBOR   1800            67                N/A
CALUMET HARBOR   1730            67   70/  7/  9 1019.4F
BURNS HARBOR     1740            66   40/  4/  5 1020.7F
MICHIGAN CITY    1740            66  270/  5/  6   N/A
$$

ABBREVIATIONS USED IN REMARKS
   TC - TEMPERATURE IN CELSIUS
  WCI - WIND CHILL INDEX
   HX - HEAT INDEX
  VSB - VISIBILITY
$$




USA.gov is the U.S. government's official web portal to all federal, state and local government web resources and services.